| time (UTC) | temp F | wind direction | speed knots | gust knots | rain 1hr in | rain 24hr in | rain mn in | humidity % | barometer mb |
| 20260504034504 | 58 | 0 | 0.0 | 0.0 | 0.00 | 0.09 | 0.00 | 94 | 1007.4 |
| 20260504034004 | 58 | 0 | 0.0 | 0.0 | 0.00 | 0.09 | 0.00 | 94 | 1006.4 |
| 20260504033504 | 58 | 0 | 0.0 | 0.0 | 0.00 | 0.09 | 0.00 | 94 | 1006.4 |
| 20260504033005 | 58 | 0 | 0.0 | 0.0 | 0.00 | 0.09 | 0.00 | 94 | 1006.4 |
| 20260504032504 | 58 | 0 | 0.0 | 0.0 | 0.00 | 0.09 | 0.00 | 94 | 1006.4 |
| 20260504032005 | 58 | 0 | 0.0 | 0.0 | 0.00 | 0.09 | 0.00 | 94 | 1006.4 |
| 20260504031504 | 58 | 0 | 0.0 | 0.0 | 0.00 | 0.09 | 0.00 | 94 | 1006.4 |
| 20260504031005 | 58 | 122 | 0.0 | 3.5 | 0.00 | 0.09 | 0.00 | 94 | 1005.3 |
| 20260504030504 | 58 | 122 | 0.0 | 3.5 | 0.00 | 0.09 | 0.00 | 94 | 1005.3 |
| 20260504030005 | 58 | 139 | 0.0 | 4.3 | 0.00 | 0.09 | 0.00 | 94 | 1005.3 |
| 20260504025504 | 58 | 139 | 0.0 | 4.3 | 0.00 | 0.09 | 0.00 | 94 | 1006.4 |
| 20260504025005 | 58 | 90 | 0.0 | 2.6 | 0.00 | 0.09 | 0.00 | 94 | 1006.4 |
| 20260504024504 | 58 | 125 | 0.9 | 4.3 | 0.00 | 0.09 | 0.00 | 94 | 1006.4 |
| 20260504024005 | 58 | 133 | 1.7 | 4.3 | 0.00 | 0.09 | 0.00 | 94 | 1005.3 |
| 20260504023505 | 58 | 128 | 1.7 | 5.2 | 0.00 | 0.09 | 0.00 | 94 | 1005.3 |
| 20260504023005 | 58 | 114 | 1.7 | 5.2 | 0.00 | 0.09 | 0.00 | 94 | 1005.3 |
| 20260504022504 | 58 | 99 | 0.9 | 5.2 | 0.00 | 0.09 | 0.00 | 94 | 1006.4 |
| 20260504022005 | 58 | 85 | 0.9 | 4.3 | 0.00 | 0.09 | 0.00 | 94 | 1006.4 |
| 20260504021504 | 58 | 93 | 0.9 | 4.3 | 0.00 | 0.09 | 0.00 | 94 | 1006.4 |
| 20260504021005 | 58 | 101 | 2.6 | 7.8 | 0.00 | 0.09 | 0.00 | 94 | 1006.4 |
| 20260504020504 | 58 | 97 | 3.5 | 7.8 | 0.00 | 0.09 | 0.00 | 94 | 1006.4 |
| 20260504020005 | 58 | 92 | 3.5 | 7.0 | 0.00 | 0.09 | 0.00 | 94 | 1006.4 |
| 20260504015505 | 58 | 92 | 2.6 | 7.0 | 0.00 | 0.09 | 0.00 | 94 | 1006.4 |
| 20260504015004 | 58 | 91 | 1.7 | 7.0 | 0.00 | 0.09 | 0.00 | 94 | 1006.4 |
| 20260504014505 | 58 | 107 | 0.9 | 5.2 | 0.00 | 0.09 | 0.00 | 94 | 1006.4 |
| 20260504014004 | 58 | 96 | 1.7 | 6.1 | 0.00 | 0.09 | 0.00 | 94 | 1006.4 |
| 20260504013505 | 58 | 89 | 0.9 | 6.1 | 0.00 | 0.09 | 0.00 | 94 | 1006.4 |
| 20260504013004 | 58 | 84 | 0.9 | 6.1 | 0.00 | 0.09 | 0.00 | 94 | 1006.4 |
| 20260504012505 | 58 | 81 | 2.6 | 7.0 | 0.00 | 0.09 | 0.00 | 94 | 1006.4 |
| 20260504012004 | 58 | 90 | 3.5 | 7.8 | 0.00 | 0.09 | 0.00 | 94 | 1006.4 |
| 20260504011505 | 58 | 115 | 2.6 | 7.8 | 0.00 | 0.09 | 0.00 | 94 | 1006.4 |
| 20260504011005 | 58 | 106 | 1.7 | 7.0 | 0.00 | 0.09 | 0.00 | 94 | 1006.4 |
| 20260504010504 | 58 | 108 | 2.6 | 7.8 | 0.00 | 0.09 | 0.00 | 94 | 1006.4 |
| 20260504010005 | 58 | 120 | 2.6 | 7.8 | 0.00 | 0.09 | 0.00 | 94 | 1006.4 |
| 20260504005504 | 58 | 127 | 2.6 | 8.7 | 0.00 | 0.09 | 0.00 | 94 | 1006.4 |
| 20260504005005 | 58 | 125 | 4.3 | 9.6 | 0.00 | 0.09 | 0.00 | 94 | 1006.4 |
| 20260504004504 | 58 | 126 | 4.3 | 9.6 | 0.00 | 0.09 | 0.00 | 94 | 1006.4 |
| 20260504004004 | 58 | 123 | 3.5 | 10.4 | 0.00 | 0.09 | 0.00 | 94 | 1006.4 |
| 20260504003505 | 58 | 110 | 4.3 | 10.4 | 0.00 | 0.09 | 0.00 | 94 | 1006.4 |
| 20260504003004 | 58 | 115 | 3.5 | 7.8 | 0.00 | 0.09 | 0.00 | 94 | 1006.4 |
| 20260504002505 | 58 | 109 | 3.5 | 7.8 | 0.00 | 0.09 | 0.00 | 94 | 1006.4 |
| 20260504002004 | 58 | 115 | 4.3 | 7.8 | 0.00 | 0.09 | 0.00 | 94 | 1006.4 |
| 20260504001505 | 58 | 122 | 4.3 | 8.7 | 0.00 | 0.09 | 0.00 | 94 | 1006.4 |
| 20260504001005 | 58 | 109 | 4.3 | 8.7 | 0.00 | 0.09 | 0.00 | 94 | 1005.3 |
| 20260504000505 | 58 | 99 | 3.5 | 7.0 | 0.00 | 0.09 | 0.00 | 94 | 1005.3 |
| 20260504000004 | 58 | 107 | 3.5 | 7.0 | 0.00 | 0.09 | 0.00 | 94 | 1005.3 |
| 20260503235504 | 58 | 113 | 3.5 | 9.6 | 0.00 | 0.09 | 0.00 | 94 | 1006.4 |
| 20260503235005 | 58 | 115 | 4.3 | 9.6 | 0.00 | 0.09 | 0.00 | 94 | 1006.4 |
| 20260503234504 | 58 | 110 | 3.5 | 7.0 | 0.00 | 0.09 | 0.00 | 94 | 1006.4 |
| 20260503234005 | 58 | 105 | 3.5 | 7.0 | 0.00 | 0.09 | 0.00 | 94 | 1006.4 |
| 20260503233504 | 58 | 109 | 3.5 | 6.1 | 0.00 | 0.09 | 0.00 | 94 | 1006.4 |
| 20260503233004 | 58 | 114 | 3.5 | 6.1 | 0.00 | 0.09 | 0.00 | 94 | 1006.4 |
| 20260503232505 | 58 | 117 | 3.5 | 7.8 | 0.00 | 0.09 | 0.00 | 94 | 1006.4 |
| 20260503232004 | 58 | 119 | 3.5 | 7.8 | 0.00 | 0.09 | 0.00 | 94 | 1006.4 |
| 20260503231504 | 58 | 118 | 2.6 | 7.0 | 0.00 | 0.09 | 0.00 | 94 | 1006.4 |
| 20260503231005 | 58 | 110 | 3.5 | 7.8 | 0.00 | 0.09 | 0.00 | 94 | 1006.4 |
| 20260503230504 | 58 | 108 | 4.3 | 9.6 | 0.00 | 0.09 | 0.00 | 94 | 1006.4 |
| 20260503230005 | 58 | 103 | 5.2 | 9.6 | 0.00 | 0.09 | 0.00 | 94 | 1006.4 |
| 20260503225504 | 58 | 102 | 4.3 | 10.4 | 0.00 | 0.09 | 0.00 | 94 | 1006.4 |
| 20260503225005 | 58 | 95 | 3.5 | 10.4 | 0.00 | 0.09 | 0.00 | 94 | 1006.4 |
| 20260503224504 | 58 | 97 | 3.5 | 7.8 | 0.00 | 0.09 | 0.00 | 94 | 1006.4 |
| 20260503224005 | 58 | 104 | 2.6 | 7.8 | 0.00 | 0.09 | 0.00 | 94 | 1007.4 |
| 20260503223504 | 58 | 100 | 1.7 | 7.8 | 0.00 | 0.09 | 0.00 | 94 | 1007.4 |
| 20260503223004 | 58 | 82 | 1.7 | 7.0 | 0.00 | 0.09 | 0.00 | 94 | 1007.4 |
| 20260503222505 | 58 | 85 | 3.5 | 7.8 | 0.00 | 0.09 | 0.00 | 94 | 1007.4 |
| 20260503222005 | 58 | 90 | 3.5 | 10.4 | 0.00 | 0.09 | 0.00 | 93 | 1007.4 |
| 20260503221505 | 58 | 97 | 3.5 | 10.4 | 0.00 | 0.09 | 0.00 | 93 | 1007.4 |
| 20260503221004 | 58 | 92 | 2.6 | 9.6 | 0.04 | 0.09 | 0.00 | 93 | 1007.4 |
| 20260503220505 | 58 | 79 | 1.7 | 7.8 | 0.04 | 0.09 | 0.00 | 92 | 1007.4 |
| 20260503220009 | 58 | 79 | 1.7 | 7.0 | 0.04 | 0.09 | 0.00 | 92 | 1007.4 |
| 20260503215505 | 58 | 73 | 1.7 | 7.0 | 0.04 | 0.09 | 0.09 | 92 | 1007.4 |
| 20260503215005 | 58 | 71 | 1.7 | 7.0 | 0.04 | 0.09 | 0.09 | 92 | 1007.4 |
| 20260503214505 | 58 | 79 | 1.7 | 7.0 | 0.04 | 0.09 | 0.09 | 92 | 1007.4 |
| 20260503214004 | 58 | 82 | 0.9 | 6.1 | 0.04 | 0.09 | 0.09 | 92 | 1007.4 |
| 20260503213505 | 58 | 86 | 0.9 | 4.3 | 0.04 | 0.09 | 0.09 | 92 | 1007.4 |
| 20260503213005 | 58 | 78 | 0.9 | 4.3 | 0.04 | 0.09 | 0.09 | 91 | 1007.4 |
| 20260503212504 | 58 | 53 | 1.7 | 6.1 | 0.04 | 0.09 | 0.09 | 91 | 1006.4 |
| 20260503212005 | 58 | 47 | 2.6 | 7.0 | 0.04 | 0.09 | 0.09 | 91 | 1006.4 |
| 20260503211504 | 58 | 43 | 4.3 | 7.0 | 0.04 | 0.09 | 0.09 | 91 | 1006.4 |
| 20260503211004 | 58 | 34 | 5.2 | 8.7 | 0.05 | 0.05 | 0.05 | 91 | 1007.4 |
| 20260503210505 | 58 | 36 | 6.1 | 8.7 | 0.05 | 0.05 | 0.05 | 91 | 1007.4 |
| 20260503210005 | 58 | 40 | 4.3 | 8.7 | 0.05 | 0.05 | 0.05 | 91 | 1007.4 |
| 20260503205504 | 58 | 40 | 4.3 | 8.7 | 0.05 | 0.05 | 0.05 | 90 | 1007.4 |
| 20260503205005 | 59 | 42 | 6.1 | 8.7 | 0.05 | 0.05 | 0.05 | 90 | 1007.4 |
| 20260503204504 | 59 | 41 | 5.2 | 8.7 | 0.05 | 0.05 | 0.05 | 89 | 1007.4 |
| 20260503204004 | 59 | 36 | 2.6 | 7.0 | 0.05 | 0.05 | 0.05 | 89 | 1007.4 |
| 20260503203504 | 59 | 30 | 2.6 | 5.2 | 0.05 | 0.05 | 0.05 | 88 | 1007.4 |
| 20260503203005 | 59 | 35 | 2.6 | 5.2 | 0.05 | 0.05 | 0.05 | 88 | 1007.4 |
| 20260503202504 | 59 | 42 | 1.7 | 5.2 | 0.05 | 0.05 | 0.05 | 87 | 1007.4 |
| 20260503202004 | 59 | 26 | 1.7 | 5.2 | 0.05 | 0.05 | 0.05 | 87 | 1007.4 |
| 20260503201505 | 60 | 23 | 0.9 | 5.2 | 0.05 | 0.05 | 0.05 | 87 | 1007.4 |
| 20260503201004 | 60 | 22 | 0.0 | 2.6 | 0.00 | 0.00 | 0.00 | 86 | 1008.4 |
| 20260503200504 | 60 | 0 | 0.0 | 0.0 | 0.00 | 0.00 | 0.00 | 85 | 1008.4 |
| 20260503200005 | 60 | 0 | 0.0 | 0.0 | 0.00 | 0.00 | 0.00 | 85 | 1008.4 |
| 20260503195505 | 60 | 0 | 0.0 | 0.0 | 0.00 | 0.00 | 0.00 | 85 | 1007.4 |
| 20260503195005 | 60 | 0 | 0.0 | 0.0 | 0.00 | 0.00 | 0.00 | 85 | 1007.4 |
| 20260503194505 | 60 | 89 | 0.9 | 6.1 | 0.00 | 0.00 | 0.00 | 85 | 1007.4 |
| 20260503194004 | 64 | 80 | 0.9 | 6.1 | 0.00 | 0.00 | 0.00 | 68 | 1006.4 |
| 20260503193504 | 64 | 70 | 1.7 | 7.8 | 0.00 | 0.00 | 0.00 | 68 | 1006.4 |
| 20260503193005 | 64 | 67 | 2.6 | 7.8 | 0.00 | 0.00 | 0.00 | 68 | 1006.4 |
| 20260503192504 | 64 | 62 | 4.3 | 9.6 | 0.00 | 0.00 | 0.00 | 68 | 1006.4 |
| 20260503192004 | 64 | 78 | 6.1 | 9.6 | 0.00 | 0.00 | 0.00 | 68 | 1006.4 |
| 20260503191505 | 64 | 99 | 4.3 | 10.4 | 0.00 | 0.00 | 0.00 | 68 | 1006.4 |
| 20260503191004 | 64 | 109 | 6.1 | 16.5 | 0.00 | 0.00 | 0.00 | 68 | 1006.4 |
| 20260503190504 | 64 | 95 | 7.8 | 16.5 | 0.00 | 0.00 | 0.00 | 68 | 1006.4 |
| 20260503190005 | 64 | 91 | 7.0 | 16.5 | 0.00 | 0.00 | 0.00 | 68 | 1006.4 |
| 20260503185504 | 64 | 101 | 7.0 | 11.3 | 0.00 | 0.00 | 0.00 | 68 | 1006.4 |
| 20260503185005 | 64 | 102 | 7.8 | 11.3 | 0.00 | 0.00 | 0.00 | 68 | 1006.4 |
| 20260503184504 | 64 | 130 | 7.8 | 12.2 | 0.00 | 0.00 | 0.00 | 68 | 1006.4 |
| 20260503184005 | 64 | 123 | 7.8 | 13.9 | 0.00 | 0.00 | 0.00 | 68 | 1006.4 |
| 20260503183504 | 64 | 110 | 7.8 | 13.9 | 0.00 | 0.00 | 0.00 | 68 | 1006.4 |
| 20260503183005 | 64 | 118 | 8.7 | 20.9 | 0.00 | 0.00 | 0.00 | 68 | 1006.4 |
| 20260503182505 | 64 | 119 | 9.6 | 20.9 | 0.00 | 0.00 | 0.00 | 68 | 1006.4 |
| 20260503182006 | 64 | 109 | 8.7 | 13.0 | 0.00 | 0.00 | 0.00 | 68 | 1006.4 |
| 20260503181505 | 64 | 122 | 8.7 | 13.0 | 0.00 | 0.00 | 0.00 | 68 | 1006.4 |
| 20260503181005 | 64 | 118 | 7.8 | 13.0 | 0.00 | 0.00 | 0.00 | 68 | 1006.4 |
| 20260503180505 | 64 | 99 | 7.0 | 13.9 | 0.00 | 0.00 | 0.00 | 68 | 1006.4 |
| 20260503180005 | 64 | 97 | 7.0 | 13.9 | 0.00 | 0.00 | 0.00 | 68 | 1006.4 |
| 20260503175505 | 64 | 106 | 7.8 | 13.9 | 0.00 | 0.00 | 0.00 | 68 | 1006.4 |
| 20260503175004 | 64 | 139 | 9.6 | 13.9 | 0.00 | 0.00 | 0.00 | 68 | 1006.4 |
| 20260503174504 | 64 | 136 | 11.3 | 13.9 | 0.00 | 0.00 | 0.00 | 68 | 1006.4 |
| 20260503174005 | 64 | 142 | 10.4 | 13.9 | 0.00 | 0.00 | 0.00 | 68 | 1006.4 |
| 20260503173505 | 64 | 135 | 10.4 | 16.5 | 0.00 | 0.00 | 0.00 | 68 | 1006.4 |
| 20260503173005 | 64 | 122 | 10.4 | 19.1 | 0.00 | 0.00 | 0.00 | 68 | 1006.4 |
| 20260503172505 | 64 | 115 | 11.3 | 19.1 | 0.00 | 0.00 | 0.00 | 68 | 1006.4 |
| 20260503172004 | 64 | 90 | 10.4 | 17.4 | 0.00 | 0.00 | 0.00 | 68 | 1006.4 |
| 20260503171505 | 64 | 83 | 10.4 | 17.4 | 0.00 | 0.00 | 0.00 | 68 | 1006.4 |
| 20260503171005 | 64 | 87 | 10.4 | 16.5 | 0.00 | 0.00 | 0.00 | 68 | 1006.4 |
| 20260503170505 | 65 | 102 | 10.4 | 16.5 | 0.00 | 0.00 | 0.00 | 68 | 1006.4 |
| 20260503151005 | 70 | 87 | 11.3 | 19.1 | 0.00 | 0.00 | 0.00 | 59 | 1006.4 |
| 20260503150505 | 70 | 71 | 11.3 | 20.0 | 0.00 | 0.00 | 0.00 | 59 | 1006.4 |
| 20260503131005 | 74 | 114 | 10.4 | 17.4 | 0.00 | 0.00 | 0.00 | 50 | 1008.4 |
| 20260503130504 | 74 | 117 | 9.6 | 17.4 | 0.00 | 0.00 | 0.00 | 51 | 1008.4 |
| 20260503110505 | 72 | 83 | 5.2 | 15.6 | 0.00 | 0.00 | 0.00 | 56 | 1009.4 |
| 20260503090504 | 69 | 97 | 6.1 | 11.3 | 0.00 | 0.00 | 0.00 | 66 | 1009.4 |
| 20260503081505 | 65 | 116 | 7.8 | 15.6 | 0.00 | 0.00 | 0.00 | 76 | 1009.4 |
| 20260503081005 | 65 | 106 | 7.0 | 15.6 | 0.00 | 0.00 | 0.00 | 76 | 1009.4 |
| 20260503080504 | 65 | 107 | 6.1 | 13.0 | 0.00 | 0.00 | 0.00 | 76 | 1009.4 |
| 20260503072505 | 64 | 98 | 6.1 | 11.3 | 0.00 | 0.00 | 0.00 | 78 | 1009.4 |
| 20260503072005 | 64 | 106 | 7.0 | 12.2 | 0.00 | 0.00 | 0.00 | 78 | 1009.4 |
| 20260503071505 | 64 | 115 | 7.8 | 16.5 | 0.00 | 0.00 | 0.00 | 78 | 1009.4 |
| 20260503071005 | 63 | 120 | 7.8 | 16.5 | 0.00 | 0.00 | 0.00 | 79 | 1009.4 |
| 20260503070505 | 57 | 116 | 5.2 | 13.9 | 0.00 | 0.00 | 0.00 | 90 | 1009.4 |
| 20260503055003 | 57 | 149 | 0.9 | 5.2 | 0.00 | 0.00 | 0.00 | 90 | 1008.4 |
| 20260503054503 | 57 | 124 | 0.9 | 5.2 | 0.00 | 0.00 | 0.00 | 90 | 1008.4 |
| 20260503053503 | 57 | 95 | 0.9 | 5.2 | 0.00 | 0.00 | 0.00 | 90 | 1008.4 |
| 20260503053003 | 58 | 89 | 0.9 | 4.3 | 0.00 | 0.00 | 0.00 | 85 | 1008.4 |
| 20260503052503 | 58 | 95 | 0.9 | 4.3 | 0.00 | 0.00 | 0.00 | 85 | 1008.4 |
| 20260503052003 | 58 | 122 | 0.0 | 2.6 | 0.00 | 0.00 | 0.00 | 85 | 1008.4 |
| 20260503051503 | 58 | 135 | 0.0 | 2.6 | 0.00 | 0.00 | 0.00 | 85 | 1008.4 |
| 20260503051003 | 58 | 135 | 0.0 | 1.7 | 0.00 | 0.00 | 0.00 | 85 | 1008.4 |
| 20260503050504 | 58 | 135 | 0.0 | 1.7 | 0.00 | 0.00 | 0.00 | 85 | 1008.4 |
| 20260503050003 | 58 | 0 | 0.0 | 0.0 | 0.00 | 0.00 | 0.00 | 85 | 1008.4 |
| 20260503045503 | 58 | 0 | 0.0 | 0.0 | 0.00 | 0.00 | 0.00 | 85 | 1008.4 |
| 20260503045003 | 58 | 158 | 0.0 | 1.7 | 0.00 | 0.00 | 0.00 | 85 | 1008.4 |
| 20260503044503 | 58 | 158 | 0.0 | 1.7 | 0.00 | 0.00 | 0.00 | 85 | 1008.4 |
| 20260503044003 | 58 | 158 | 0.0 | 3.5 | 0.00 | 0.00 | 0.00 | 85 | 1008.4 |
| 20260503043503 | 58 | 158 | 0.0 | 3.5 | 0.00 | 0.00 | 0.00 | 85 | 1008.4 |
| 20260503043003 | 58 | 0 | 0.0 | 0.0 | 0.00 | 0.00 | 0.00 | 85 | 1008.4 |
| 20260503042503 | 58 | 0 | 0.0 | 0.0 | 0.00 | 0.00 | 0.00 | 85 | 1008.4 |
| 20260503042003 | 58 | 0 | 0.0 | 0.0 | 0.00 | 0.00 | 0.00 | 85 | 1008.4 |
| 20260503041503 | 58 | 0 | 0.0 | 0.0 | 0.00 | 0.00 | 0.00 | 85 | 1008.4 |
| 20260503041003 | 58 | 149 | 0.0 | 1.7 | 0.00 | 0.00 | 0.00 | 85 | 1008.4 |
| 20260503040503 | 58 | 144 | 0.0 | 4.3 | 0.00 | 0.00 | 0.00 | 85 | 1008.4 |
| 20260503040003 | 58 | 142 | 0.0 | 4.3 | 0.00 | 0.00 | 0.00 | 85 | 1008.4 |
| 20260503035503 | 58 | 0 | 0.0 | 0.0 | 0.00 | 0.00 | 0.00 | 85 | 1008.4 |
| 20260503035003 | 58 | 128 | 0.9 | 5.2 | 0.00 | 0.00 | 0.00 | 85 | 1008.4 |